Probability
0 0 0 0 0 0 0 0 0 0 0 0 0 0 0 0 0 0 0 0 0 0 0 0 0 0 0 0 3 3 3 3 3 0 0 0 0 0 0 0 0 0 0
0 0 0 0 0 0 0 0 0 0 0 0 0 0 0 0 0 0 0 0 0 0 0 0 0 0 0 0 0 6 3 0 0 0 0 0 0 0 0 0 0 0 0
0 0 0 0 0 0 0 0 0 0 0 0 0 0 0 0 0 0 0 0 0 0 0 0 0 0 0 3 3 3 0 0 0 0 0 0 0 0 0 0 0 0 0
0 0 0 0 0 0 0 0 0 0 0 0 0 0 0 0 0 0 0 0 0 0 0 0 0 3 0 0 3 3 3 0 0 0 0 0 0 0 0 0 0 0 0
0 0 0 0 0 0 0 0 0 0 0 0 0 0 0 0 0 0 0 0 0 0 0 0 0 0 0 0 0 0 3 0 0 0 0 0 0 0 0 0 0 0 0
0 0 0 0 0 0 0 0 0 0 0 0 0 0 0 0 0 0 0 0 0 0 0 0 0 0 0 0 0 0 0 0 0 0 0 0 0 0 0 0 0 0 0
0 0 0 0 0 0 0 0 0 0 0 0 0 0 0 0 0 0 0 0 0 0 0 0 0 0 0 0 0 0 0 0 0 0 0 0 0 0 0 0 0 0 0
0 0 0 0 0 0 0 0 0 0 0 0 0 0 0 0 0 0 0 0 0 0 0 0 0 0 0 0 0 0 0 0 0 0 0 0 0 0 0 0 0 0 0
0 0 0 0 0 0 0 0 0 0 0 0 0 0 0 0 0 0 0 0 0 0 0 0 0 0 0 0 0 0 0 0 0 0 0 0 0 0 0 0 0 0 0
0 0 0 0 0 0 0 0 0 0 0 0 0 0 0 0 0 0 0 0 0 0 0 0 0 0 0 0 0 0 0 0 0 0 0 0 0 0 0 0 0 0 0
0 0 0 0 0 0 0 0 0 0 0 0 0 0 0 0 0 0 0 0 0 0 0 0 0 0 0 0 0 0 0 0 0 0 0 0 0 0 0 0 0 0 0
0 0 0 0 0 0 0 0 0 0 0 0 0 0 0 0 0 0 0 0 0 0 0 0 0 0 0 0 0 0 0 0 0 0 0 0 0 0 0 0 0 0 0
0 0 0 0 0 0 0 0 0 0 0 0 0 0 0 0 0 0 0 0 0 0 0 0 0 0 0 0 0 0 0 0 0 0 0 0 0 0 0 0 0 0 0
0 0 0 0 0 0 0 0 0 0 0 0 0 0 0 0 0 0 0 0 0 0 0 0 0 0 0 0 0 0 0 0 0 0 0 0 0 0 0 0 0 0 0
0 0 0 0 0 0 0 0 0 0 0 0 0 0 0 0 0 0 0 0 0 0 0 0 0 0 0 0 0 0 0 0 0 0 0 0 0 0 0 0 0 0 0
0 0 0 0 0 0 0 0 0 0 0 0 0 0 0 0 0 0 0 0 0 0 0 0 0 0 0 0 0 0 0 0 0 0 0 0 0 0 0 0 0 0 0
0 0 0 0 0 0 0 0 0 0 0 0 0 0 0 0 0 0 0 0 0 0 0 0 0 0 0 0 0 0 0 0 0 0 0 0 0 0 0 0 0 0 0
0 0 0 0 0 0 0 0 0 0 0 0 0 0 0 0 0 0 0 0 0 0 0 0 0 0 0 0 0 0 0 0 0 0 0 0 0 0 0 0 0 0 0
0 0 0 0 0 0 0 0 0 0 0 0 0 0 0 0 0 0 0 0 0 0 0 0 0 0 0 0 0 0 0 0 0 0 0 0 0 0 0 0 0 0 0
0 0 0 0 0 0 0 0 0 0 0 0 0 0 0 0 0 0 0 0 0 0 0 0 0 0 0 0 0 0 0 0 0 0 0 0 0 0 0 0 0 0 0
0 0 0 0 0 0 0 0 0 0 0 0 0 0 0 0 0 0 0 0 0 0 0 0 0 0 0 0 0 0 0 0 0 0 0 0 0 0 0 0 0 0 0
0 0 0 0 0 0 0 0 0 0 0 0 0 0 0 0 0 0 0 0 0 0 0 0 0 0 0 0 0 0 0 0 0 0 0 0 0 0 0 0 0 0 0
0 0 0 0 0 0 0 0 0 0 0 0 0 0 0 0 0 0 0 0 0 0 0 0 0 0 0 0 0 0 0 0 0 0 0 0 0 0 0 0 0 0 0
0 0 0 0 0 0 0 0 0 0 0 0 0 0 0 0 0 0 0 0 0 0 0 0 0 0 0 0 0 0 0 0 0 0 0 0 0 0 0 0 0 0 0
0 0 0 0 0 0 0 0 0 0 0 0 0 0 0 0 0 0 0 0 0 0 0 0 0 0 0 0 0 0 0 0 0 0 0 0 0 0 0 0 0 0 0
0 0 0 0 0 0 0 0 0 0 0 0 0 0 0 0 0 0 0 0 0 0 0 0 0 0 0 0 0 0 0 0 0 0 0 0 0 0 0 0 0 0 0
Height
5794 5795 5796 5797 5798 5799 5800 5801 5802 5802 5803 5804 5804 5804 5804 5804 5805 5805 5806 5806 5806 5806 5806 5806 5806 5806 5806 5806 5805 5805 5804 5804 5803 5803 5802 5802 5801 5800 5799 5798 5797 5795 5794
5786 5787 5788 5789 5790 5790 5791 5792 5793 5794 5795 5795 5796 5796 5796 5796 5796 5797 5797 5798 5798 5798 5798 5799 5799 5799 5798 5798 5798 5797 5797 5796 5796 5795 5795 5794 5793 5793 5792 5791 5790 5788 5787
5776 5777 5778 5779 5780 5781 5782 5783 5783 5784 5785 5786 5787 5787 5787 5787 5788 5788 5789 5789 5789 5790 5790 5790 5791 5791 5791 5790 5790 5789 5789 5788 5788 5787 5787 5786 5786 5785 5784 5783 5782 5781 5780
5766 5767 5768 5769 5770 5771 5772 5773 5773 5774 5775 5776 5777 5777 5778 5778 5778 5779 5779 5780 5780 5781 5781 5781 5781 5782 5782 5782 5781 5781 5780 5780 5780 5779 5779 5778 5778 5777 5776 5776 5775 5773 5772
5755 5756 5757 5759 5759 5760 5761 5762 5763 5763 5764 5765 5766 5767 5767 5768 5768 5769 5769 5770 5770 5771 5771 5771 5772 5772 5772 5772 5772 5772 5772 5771 5771 5770 5770 5770 5769 5769 5768 5767 5766 5765 5764
5744 5745 5746 5747 5747 5748 5749 5750 5751 5751 5752 5753 5754 5756 5757 5757 5757 5758 5758 5759 5759 5760 5760 5761 5761 5762 5762 5762 5762 5762 5762 5761 5761 5761 5761 5760 5760 5760 5759 5758 5758 5757 5756
5732 5733 5734 5734 5735 5735 5736 5737 5738 5739 5739 5740 5741 5743 5744 5745 5746 5746 5747 5747 5748 5748 5748 5749 5750 5750 5751 5751 5751 5751 5751 5751 5751 5751 5751 5750 5750 5750 5749 5749 5748 5748 5747
5720 5721 5721 5722 5722 5723 5723 5724 5725 5726 5726 5726 5728 5729 5731 5734 5733 5734 5734 5735 5735 5736 5736 5737 5737 5738 5739 5739 5740 5740 5740 5740 5740 5741 5740 5739 5739 5739 5739 5739 5739 5738 5737
5708 5708 5709 5709 5709 5709 5710 5710 5711 5711 5712 5713 5712 5714 5715 5718 5720 5722 5721 5721 5722 5722 5723 5723 5724 5724 5725 5726 5727 5728 5728 5728 5729 5729 5729 5728 5728 5728 5728 5728 5728 5727 5727
5695 5695 5695 5695 5695 5695 5696 5696 5696 5696 5697 5698 5698 5698 5699 5701 5703 5706 5708 5708 5708 5708 5708 5709 5710 5710 5711 5712 5713 5714 5715 5715 5716 5716 5716 5716 5716 5717 5717 5717 5716 5716 5715
5682 5682 5681 5681 5681 5681 5681 5681 5681 5681 5681 5681 5682 5682 5683 5684 5684 5686 5691 5693 5693 5693 5693 5694 5695 5696 5696 5697 5698 5700 5700 5701 5702 5702 5703 5703 5704 5704 5705 5704 5704 5704 5704
5669 5668 5667 5667 5666 5666 5665 5665 5665 5664 5664 5664 5665 5665 5666 5667 5668 5668 5671 5674 5677 5678 5678 5678 5679 5680 5680 5681 5682 5683 5685 5686 5687 5688 5689 5689 5690 5690 5691 5691 5692 5691 5691
5655 5654 5653 5652 5651 5651 5650 5649 5648 5648 5647 5647 5647 5648 5649 5649 5650 5651 5652 5654 5657 5661 5662 5663 5662 5663 5664 5664 5666 5667 5668 5670 5671 5673 5674 5675 5675 5676 5676 5677 5678 5678 5678
5641 5640 5638 5638 5636 5635 5634 5633 5632 5631 5630 5630 5631 5631 5632 5633 5633 5634 5635 5636 5638 5643 5645 5647 5646 5646 5647 5647 5649 5650 5652 5654 5655 5656 5658 5659 5660 5661 5662 5663 5664 5664 5664
5627 5626 5624 5623 5621 5620 5618 5617 5616 5615 5614 5614 5614 5615 5616 5617 5617 5618 5618 5619 5620 5623 5629 5631 5631 5630 5630 5631 5632 5633 5635 5637 5638 5639 5641 5643 5644 5645 5647 5648 5649 5650 5650
5613 5612 5610 5608 5606 5604 5602 5601 5600 5599 5598 5598 5598 5599 5600 5601 5602 5602 5603 5604 5604 5605 5610 5614 5614 5614 5613 5615 5616 5617 5619 5620 5622 5623 5625 5626 5628 5630 5632 5634 5635 5636 5636
5599 5597 5595 5592 5590 5588 5587 5585 5585 5584 5583 5583 5583 5584 5585 5586 5586 5587 5587 5588 5589 5589 5591 5597 5597 5597 5597 5598 5600 5601 5603 5604 5606 5607 5609 5610 5612 5614 5616 5618 5620 5621 5622
5585 5582 5579 5577 5575 5573 5571 5570 5569 5568 5568 5568 5568 5568 5569 5570 5571 5571 5572 5572 5573 5573 5574 5579 5581 5581 5581 5582 5583 5585 5587 5588 5590 5592 5593 5595 5597 5599 5601 5603 5605 5606 5607
5571 5568 5565 5562 5560 5558 5556 5555 5554 5553 5553 5553 5553 5553 5553 5554 5555 5555 5556 5556 5557 5557 5558 5560 5564 5565 5566 5566 5567 5569 5571 5572 5574 5576 5579 5581 5583 5584 5586 5588 5590 5591 5592
5557 5554 5551 5548 5545 5543 5541 5540 5539 5538 5538 5538 5538 5538 5538 5538 5539 5539 5540 5541 5541 5541 5542 5544 5547 5549 5550 5551 5551 5554 5556 5558 5560 5562 5564 5566 5568 5570 5572 5573 5575 5576 5577
5544 5541 5538 5535 5532 5529 5527 5525 5524 5524 5524 5523 5523 5523 5522 5522 5523 5523 5524 5525 5525 5526 5527 5528 5530 5533 5535 5536 5537 5538 5540 5543 5545 5547 5549 5552 5554 5556 5557 5559 5560 5561 5563
5532 5529 5526 5522 5519 5516 5513 5511 5509 5509 5509 5509 5509 5508 5508 5508 5508 5508 5509 5510 5510 5511 5512 5513 5515 5517 5520 5521 5522 5523 5525 5527 5531 5535 5535 5539 5540 5542 5544 5545 5546 5548 5549
5520 5517 5513 5510 5506 5503 5499 5497 5495 5494 5494 5494 5494 5494 5493 5493 5493 5493 5494 5495 5496 5496 5497 5498 5500 5503 5505 5507 5507 5509 5511 5513 5517 5520 5522 5525 5527 5529 5531 5532 5533 5535 5536
5508 5505 5502 5498 5495 5491 5488 5485 5482 5481 5481 5481 5480 5480 5479 5479 5479 5479 5480 5481 5482 5483 5484 5484 5487 5489 5491 5493 5494 5495 5498 5500 5504 5507 5509 5512 5515 5517 5519 5520 5521 5522 5524
5497 5494 5490 5487 5484 5480 5476 5473 5470 5469 5469 5468 5467 5466 5466 5466 5466 5466 5466 5468 5470 5472 5472 5473 5475 5476 5478 5480 5481 5483 5485 5488 5492 5495 5497 5500 5503 5505 5507 5509 5510 5511 5513
5485 5482 5479 5476 5473 5470 5467 5463 5460 5458 5458 5457 5456 5455 5454 5454 5454 5454 5454 5456 5458 5460 5461 5462 5464 5465 5467 5469 5470 5472 5474 5477 5480 5484 5487 5489 5491 5493 5496 5499 5500 5501 5502
Wind_Speed
36 36 36 36 36 37 37 37 36 36 36 36 35 36 36 36 35 35 34 34 34 33 33 33 33 33 33 32 32 32 33 32 33 33 33 33 33 32 32 32 31 31 30
38 38 38 38 39 39 39 39 39 39 39 38 38 38 39 39 38 38 37 36 36 35 35 34 34 34 34 34 34 34 34 34 34 34 34 34 34 34 34 33 32 32 32
41 41 41 41 41 41 41 41 41 41 41 40 40 40 40 41 40 39 39 38 38 38 37 37 37 36 37 36 36 36 36 36 36 36 35 35 35 35 35 34 34 33 33
43 43 43 44 44 44 44 44 44 43 44 43 43 43 43 42 42 42 41 41 40 40 40 39 39 39 39 39 39 38 38 37 38 37 37 37 36 36 36 36 35 34 34
45 46 46 47 47 47 46 46 46 46 46 46 46 46 45 45 44 44 44 43 43 42 42 42 42 42 42 41 41 41 40 39 40 39 39 38 38 38 38 37 36 36 36
47 48 48 49 49 49 49 49 49 49 49 49 49 48 48 47 47 46 46 45 45 45 45 44 44 44 44 44 43 43 42 42 41 41 41 40 40 39 39 39 38 38 38
48 49 49 50 51 51 51 51 51 51 52 52 52 51 51 50 50 50 49 49 48 48 48 47 46 46 46 46 45 44 44 43 43 43 43 43 42 41 41 41 40 40 40
48 49 49 51 52 53 53 53 54 54 54 54 54 54 53 52 53 53 52 52 51 51 51 50 49 48 48 48 47 46 46 45 45 45 45 45 44 43 43 43 42 42 42
49 50 50 51 53 54 55 56 56 56 56 56 56 56 56 55 55 54 54 54 53 53 53 53 52 51 50 50 49 49 48 48 47 47 46 46 46 45 45 45 44 43 44
50 52 52 53 54 55 57 58 58 58 58 57 58 58 58 58 57 56 55 55 55 55 55 55 54 54 53 52 52 51 50 51 50 50 49 48 48 47 47 46 46 46 45
51 53 53 54 54 56 57 58 59 59 59 60 60 60 59 59 59 59 58 57 57 57 56 56 56 56 55 55 54 54 53 53 52 52 52 51 50 50 49 48 48 47 47
52 53 54 55 56 57 57 58 59 60 61 61 62 61 61 61 60 60 60 59 58 58 58 57 57 57 57 56 56 55 55 54 54 54 53 53 51 51 52 51 50 50 49
53 53 54 55 56 57 57 58 59 60 61 62 62 61 61 60 60 60 60 60 59 58 58 58 58 58 57 57 57 56 56 56 56 56 55 54 53 52 52 52 51 51 50
53 54 54 55 56 57 57 58 59 60 60 60 61 61 60 59 59 59 59 59 59 58 57 56 57 57 57 58 57 57 57 57 57 56 56 55 55 54 53 53 52 51 50
53 54 55 56 56 57 58 58 58 58 58 58 59 59 59 58 58 57 57 58 58 57 56 55 56 56 57 57 57 57 58 57 57 56 56 55 55 55 54 53 52 52 52
54 55 56 56 57 57 57 58 57 57 57 57 57 58 58 57 57 57 57 57 57 57 55 53 54 55 57 58 57 57 57 57 56 56 55 55 54 55 54 53 53 53 53
53 54 55 55 56 56 56 56 56 55 55 56 56 57 57 57 57 56 57 57 57 58 56 53 53 54 56 57 57 56 55 56 55 55 54 54 54 54 53 53 53 53 53
52 53 54 54 54 54 54 55 55 55 54 55 55 55 56 57 56 57 57 57 57 57 57 55 53 54 55 56 56 55 54 54 53 52 52 52 52 52 52 53 52 52 52
51 52 52 52 52 52 52 53 53 54 54 54 54 54 55 56 56 57 57 56 57 57 57 56 54 53 54 55 55 54 52 51 51 51 52 51 51 50 52 52 51 52 52
50 51 51 51 51 51 51 51 51 52 52 53 53 54 55 57 57 57 56 56 56 55 55 55 53 52 53 53 54 53 52 51 51 51 51 51 50 50 51 51 50 51 50
49 49 49 49 50 50 50 50 50 50 50 51 52 53 54 55 56 57 56 55 54 53 53 53 53 52 51 51 51 52 52 51 50 48 48 49 49 49 47 47 48 47 48
47 47 47 47 48 49 49 49 50 50 49 49 50 51 52 53 54 55 54 53 52 52 52 52 51 50 49 49 49 49 49 49 48 46 46 45 46 45 44 45 46 46 47
46 46 46 46 46 47 47 47 48 48 48 48 48 49 49 50 51 52 52 52 50 51 51 49 48 47 46 46 47 47 47 47 46 45 46 44 43 43 42 43 44 44 44
45 45 45 45 45 45 45 46 46 46 45 45 46 46 46 47 47 48 49 48 48 47 46 46 45 45 44 43 43 44 45 44 44 43 43 42 41 41 41 41 42 42 41
44 44 43 44 44 43 44 44 44 43 43 43 43 44 44 43 43 44 44 45 44 43 42 42 42 41 41 41 41 40 41 42 41 41 40 39 38 39 40 39 39 39 39
44 43 43 44 44 44 44 43 43 42 42 41 41 41 41 40 40 39 40 40 39 38 39 40 40 39 39 38 39 39 39 39 38 37 37 37 37 38 37 35 36 36 36
Wind_Direction
265 265 265 266 266 266 266 267 267 268 269 270 271 272 273 274 274 274 274 274 275 276 275 276 276 277 278 278 280 280 280 281 280 281 282 283 284 284 285 286 288 288 289
264 264 265 266 266 267 267 267 267 267 268 269 270 270 271 272 273 273 273 273 273 273 274 275 276 276 277 278 279 279 280 280 280 280 281 282 283 284 285 285 286 288 288
264 264 265 266 266 267 267 268 267 267 268 268 269 270 271 272 273 273 273 272 272 272 273 273 274 274 275 276 277 279 279 279 279 280 281 281 282 283 283 284 285 286 287
265 265 265 266 267 267 267 267 267 268 268 268 268 269 270 271 272 273 273 272 272 271 272 272 273 273 274 275 276 277 278 279 279 279 280 280 281 282 282 283 284 285 286
264 265 266 267 267 267 267 268 267 267 268 268 268 269 269 270 271 272 272 272 272 272 271 271 272 272 273 274 275 275 277 277 277 279 280 279 279 280 281 281 282 284 285
265 266 267 267 268 267 267 267 268 268 268 268 268 268 268 269 270 271 271 271 271 271 271 271 271 271 272 273 274 274 274 275 276 278 279 279 278 279 279 280 282 283 284
267 267 267 267 268 268 267 267 267 268 268 268 268 268 268 269 269 269 270 270 270 270 270 270 270 270 270 271 272 272 273 273 274 275 276 277 278 278 279 280 281 282 283
269 268 267 268 268 268 268 268 268 268 268 268 268 268 268 269 269 269 269 270 270 270 270 269 269 269 269 270 270 271 272 272 272 273 274 275 277 278 278 279 280 281 282
269 270 269 269 268 268 268 268 268 268 268 268 269 269 269 268 267 267 268 269 269 269 270 269 268 269 269 269 269 269 270 271 271 271 272 274 275 277 278 279 278 279 280
271 271 271 270 271 270 269 270 269 268 269 268 269 270 270 269 268 267 267 268 269 269 269 269 268 268 268 268 268 268 269 269 270 270 271 272 274 275 276 277 277 277 278
272 272 271 271 271 272 272 272 271 270 270 269 269 269 270 270 270 269 268 267 267 268 268 268 268 268 268 268 268 268 267 268 269 269 270 271 273 274 274 276 276 277 277
273 273 273 272 272 273 274 274 273 272 271 270 269 269 270 270 270 269 269 268 267 267 267 267 267 267 267 267 267 267 267 267 268 268 269 271 272 273 273 274 275 276 277
274 275 275 275 275 275 275 275 275 273 272 270 269 269 269 270 270 269 269 269 268 267 266 266 266 265 265 265 266 267 267 267 267 268 269 269 270 271 271 272 273 274 275
277 276 276 276 276 276 275 276 275 274 273 271 269 268 268 268 269 269 269 270 269 267 267 266 265 265 264 263 264 266 266 266 267 267 267 267 268 268 269 270 272 272 273
277 277 277 277 277 276 276 277 275 274 273 271 270 268 268 268 268 268 269 270 270 269 267 266 265 264 264 264 265 266 266 266 267 267 267 267 266 266 267 269 271 271 272
279 278 278 278 277 277 277 276 276 275 273 271 270 269 267 267 268 268 268 269 270 270 269 267 266 264 264 264 265 265 266 266 267 266 266 267 266 266 266 267 270 271 272
281 281 280 279 278 277 276 275 275 274 273 272 271 270 268 267 267 267 269 270 270 270 270 268 267 266 265 264 265 265 266 266 266 265 265 266 265 265 265 266 268 269 270
283 282 281 280 279 278 277 275 274 274 274 273 271 270 269 268 268 268 270 270 270 270 270 269 267 267 266 266 265 265 266 265 265 264 265 266 266 266 266 266 266 268 270
284 284 283 282 280 279 277 276 275 275 274 273 272 271 270 269 268 268 269 270 270 270 270 270 269 268 268 266 265 265 265 265 264 264 265 265 266 265 264 264 266 268 270
284 285 284 283 282 280 279 277 276 276 275 274 273 272 271 269 268 268 268 269 270 270 269 269 269 268 267 266 265 263 263 264 263 263 264 264 265 265 263 263 265 267 269
284 284 284 283 282 281 280 278 277 277 276 275 274 274 272 270 268 267 267 268 269 269 269 269 269 268 267 266 264 262 262 264 262 263 264 262 263 265 264 264 265 267 268
285 285 285 284 283 283 282 280 278 277 276 275 275 274 273 271 269 268 267 267 268 268 269 269 269 267 266 265 264 262 262 263 261 262 263 262 262 263 265 264 265 267 268
287 286 286 286 285 285 283 282 281 279 276 276 276 275 273 272 271 268 267 266 267 268 268 267 267 267 265 264 263 262 261 262 261 260 261 262 262 262 264 266 266 267 267
287 287 287 287 286 286 285 285 283 280 278 278 277 275 274 272 270 269 267 265 266 267 267 267 267 266 265 264 262 260 259 260 259 260 262 262 261 261 263 264 265 265 265
287 288 287 288 288 287 287 287 284 282 280 278 277 276 274 273 270 269 268 266 265 265 265 265 264 264 263 263 262 261 259 259 258 258 259 261 260 261 263 263 261 261 263
287 288 288 288 289 287 287 287 286 285 283 280 278 276 274 273 270 268 267 265 264 263 263 263 263 262 261 262 262 262 260 258 257 256 256 257 259 261 262 260 259 261 264